Weather History for LRTM - February, 2014

Change the Weather History Date:

Friday, February 21, 2014

  Actual Average Record
Temperature  
Mean Temperature 47 °F -  
Max Temperature 55 °F 44 °F - ()
Min Temperature 39 °F 27 °F - ()
Degree Days  
Heating Degree Days 18    
Moisture  
Dew Point 43 °F    
Average Humidity 87    
Maximum Humidity 100    
Minimum Humidity 67    
Precipitation  
Precipitation 0.00 in - - ()
Sea Level Pressure  
Sea Level Pressure 29.99 in    
Wind  
Wind Speed 2 mph ()    
Max Wind Speed 7 mph    
Max Gust Speed -    
Visibility 3.5 miles    
Events      
T = Trace of Precipitation, MM = Missing Value Source: Averaged Metar Reports

Daily Weather History Graph

Daily Weather History Graph

Search for Another Location

Airport or City:

Trip Planner

Search our weather history database for the weather conditions in past years. The results will help you decide how hot, cold, wet, or windy it might be!

Date:

Astronomy

Feb. 21, 2014 Rise Set
Actual Time 7:16 AM EET 5:56 PM EET
Civil Twilight 6:45 AM EET 6:26 PM EET
Nautical Twilight 6:10 AM EET 7:02 PM EET
Astronomical Twilight 5:35 AM EET 7:36 PM EET
Moon No Moon Rise 10:04 AM EET (2/21)
Length of Visible Light 11h 41m
Length of Day
10h 39m
Waning Gibbous, 64% of the Moon is Illuminated
Feb 21
Waning Gibbous
Feb 22
Last Quarter
Mar 1
New
Mar 8
First Quarter
Mar 16
Full

Hourly Weather History & Observations

Time (EET) Temp. Windchill Dew Point Humidity Pressure Visibility Wind Dir Wind Speed Gust Speed Precip Events Conditions
12:00 AM 42.8 °F - 41.0 °F 93% 30.06 in 6.2 mi West 2.3 mph - N/A   Overcast
1:00 AM 42.8 °F - 41.0 °F 93% 30.06 in 6.2 mi Variable 2.3 mph - N/A   Overcast
2:00 AM 42.8 °F - 41.0 °F 93% 30.06 in 6.2 mi Variable 2.3 mph - N/A   Overcast
3:00 AM 42.8 °F - 41.0 °F 93% 30.04 in 6.2 mi SW 2.3 mph - N/A   Overcast
4:00 AM 41.0 °F - 41.0 °F 100% 30.04 in 5.6 mi Calm Calm - N/A   Mostly Cloudy
5:00 AM 39.2 °F - 39.2 °F 100% 30.04 in 4.3 mi Variable 2.3 mph - N/A   Mostly Cloudy
5:30 AM 39.2 °F - 37.4 °F 93% 30.04 in 3.1 mi Variable 2.3 mph - N/A   Mostly Cloudy
6:00 AM 39.2 °F - 39.2 °F 100% 30.04 in 3.7 mi Calm Calm - N/A   Mostly Cloudy
6:30 AM 41.0 °F - 39.2 °F 93% 30.04 in 3.7 mi East 2.3 mph - N/A   Mostly Cloudy
7:00 AM 41.0 °F 38.0 °F 41.0 °F 100% 30.04 in 3.7 mi East 4.6 mph - N/A   Mostly Cloudy
7:30 AM 42.8 °F 40.1 °F 41.0 °F 93% 30.04 in 2.5 mi East 4.6 mph - N/A   Overcast
8:00 AM 42.8 °F 40.1 °F 41.0 °F 93% 30.04 in 2.5 mi ENE 4.6 mph - N/A   Overcast
8:30 AM 42.8 °F 40.1 °F 42.8 °F 100% 30.04 in 1.6 mi ENE 4.6 mph - N/A   Mostly Cloudy
9:00 AM 44.6 °F 42.2 °F 42.8 °F 93% 30.04 in 1.6 mi ENE 4.6 mph - N/A   Mostly Cloudy
9:30 AM 44.6 °F 42.2 °F 42.8 °F 93% 30.04 in 1.2 mi ENE 4.6 mph - N/A   Mostly Cloudy
10:00 AM 46.4 °F 44.3 °F 44.6 °F 93% 30.04 in 1.7 mi East 4.6 mph - N/A   Mostly Cloudy
10:30 AM 46.4 °F - 44.6 °F 93% 30.04 in - Variable 2.3 mph - N/A   Mostly Cloudy
11:00 AM 48.2 °F - 44.6 °F 87% 30.01 in - Variable 2.3 mph - N/A   Scattered Clouds
11:30 AM 50.0 °F - 44.6 °F 82% 30.01 in 2.8 mi Variable 2.3 mph - N/A   Scattered Clouds
12:00 PM 51.8 °F - 44.6 °F 76% 30.01 in 2.8 mi ENE 4.6 mph - N/A   Scattered Clouds
12:30 PM 51.8 °F - 44.6 °F 76% 29.98 in 4.3 mi ENE 4.6 mph - N/A   Partly Cloudy
1:00 PM 53.6 °F - 44.6 °F 72% 29.98 in 3.1 mi Variable 2.3 mph - N/A   Partly Cloudy
1:30 PM 55.4 °F - 46.4 °F 72% 29.95 in 4.3 mi Variable 2.3 mph - N/A   Unknown
2:00 PM 55.4 °F - 44.6 °F 67% 29.95 in 4.3 mi Variable 2.3 mph - N/A   Unknown
2:30 PM 55.4 °F - 46.4 °F 72% 29.95 in 4.3 mi Variable 2.3 mph - N/A   Unknown
3:00 PM 55.4 °F - 46.4 °F 72% 29.95 in 4.3 mi Variable 2.3 mph - N/A   Unknown
3:30 PM 55.4 °F - 46.4 °F 72% 29.95 in 4.3 mi Variable 2.3 mph - N/A   Unknown
4:00 PM 55.4 °F - 46.4 °F 72% 29.95 in 4.3 mi Variable 2.3 mph - N/A   Partly Cloudy
4:30 PM 55.4 °F - 46.4 °F 72% 29.92 in 4.3 mi Calm Calm - N/A   Scattered Clouds
5:00 PM 53.6 °F - 46.4 °F 77% 29.92 in 4.3 mi Calm Calm - N/A   Scattered Clouds
5:30 PM 51.8 °F - 46.4 °F 82% 29.92 in 3.7 mi SSW 2.3 mph - N/A   Scattered Clouds
6:00 PM 50.0 °F - 46.4 °F 87% 29.92 in 3.7 mi SW 2.3 mph - N/A   Partly Cloudy
6:30 PM 48.2 °F - 44.6 °F 87% 29.92 in 3.7 mi Calm Calm - N/A   Partly Cloudy
7:00 PM 48.2 °F - 44.6 °F 87% 29.92 in 3.7 mi Calm Calm - N/A   Partly Cloudy
7:30 PM 44.6 °F 40.7 °F 42.8 °F 93% 29.92 in 2.8 mi SW 6.9 mph - N/A   Partly Cloudy
8:00 PM 44.6 °F 42.2 °F 42.8 °F 93% 29.92 in 2.8 mi WSW 4.6 mph - N/A   Mist
8:30 PM 44.6 °F - 42.8 °F 93% 29.92 in 2.5 mi West 2.3 mph - N/A   Mist
9:00 PM 44.6 °F - 42.8 °F 93% 29.92 in 1.9 mi West 2.3 mph - N/A   Mist
10:00 PM 41.0 °F - 39.2 °F 93% 29.92 in 1.1 mi Variable 2.3 mph - N/A   Mist
11:00 PM 39.2 °F - 37.4 °F 93% 29.92 in 1.1 mi NE 2.3 mph - N/A   Mist